Weather in Krivko

Russia / Saint-Petersburg and Leningrad Oblast     60°35′10″N   30°15′39″E
temp.,
°C
wind,
m/s
gust,
m/s
humid.,
%
clouds,
%
prec.,
mm/h
press.,
hPa
HPBL,
m
14 may, fri
fri1400:00+13nnw1161100 0.0 101110
03:00+13ese0062100 0.0 101010
06:00+12ssw2583100 0.3 1010160
09:00+14ssw3569100 0.3 1010628
12:00+17ssw454892 0.0 10111550
15:00+19ssw464052 0.0 10102089
18:00+18s45525 0.0 10101231
21:00+14sse22766 0.0 101014
15 may, sat
sat1500:00+11e228526 0.0 101117
03:00+11ese2287100 0.0 101039
06:00+12ese258490 0.0 1009158
09:00+14e257491 0.0 1009191
12:00+18e3555100 0.0 1008551
15:00+19e455692 0.0 1007957
18:00+16ene3669100 0.0 1006645
21:00+13nnw2789100 0.1 1005380
16 may, sun
sun1600:00+13nnw2596100 0.4 1004413
03:00+12nnw2596100 0.6 1004325
06:00+12wnw2697100 1.2 1004348
09:00+12wnw3695100 1.8 1004555
12:00+13wnw2692100 0.1 1006493
15:00+15wnw268588 0.1 1007577
18:00+17nnw257425 0.3 1007773
21:00+13ssw11906 0.4 100817
17 may, mon
mon1700:00+10w22945 0.0 101027
03:00+9wsw11920 0.0 101110
06:00+11ssw11830 0.0 101115
09:00+17sse23550 0.0 1012495
12:00+21ese34472 0.0 10121478
15:00+20e565617 0.0 1011913
18:00+16e3871100 0.0 1010251
21:00+14e31271100 0.0 1009274
18 may, tue
tue1800:00+13e31480100 0.0 1007326
03:00+12e51491100 0.3 1003381
06:00+13ese51693100 0.1 1001678
09:00+14ssw71285100 0.3 1002841
12:00+13sw61077100 0.0 1006891
15:00+17wsw584764 0.1 10081236
18:00+17wsw3546100 0.0 1009988
21:00+13sse1164100 0.0 100910